Regional Weather Roundup
Issued by NWS Kansas City/Pleasant Hill, MO

Home | Current Version | Previous Version | Text Only | Print | Product List | Glossary On
Versions: 1 2 3 4 5 6 7 8 9 10 11 12 13 14 15 16 17 18 19 20 21 22 23 24 25 26 27 28 29 30 31 32 33 34 35 36 37 38 39 40 41 42 43 44 45 46 47 48 49 50
000
ASUS43 KEAX 211611
RWREAX

WEATHER ROUNDUP FOR EASTERN KANSAS AND NORTHWEST MISSOURI
NATIONAL WEATHER SERVICE KANSAS CITY/PLEASANT HILL MO
1100 AM CDT TUE OCT 21 2014

KSZ040-057-103>105-MOZ028-029-037-043-211700-
...KANSAS CITY METROPOLITAN AREA...

CITY           SKY/WX    TMP DP  RH WIND       PRES   REMARKS
K.C. INTL      SUNNY     64  48  56 CALM      30.15R
K.C. DOWNTOWN  SUNNY     63  47  55 CALM      30.14S
LEES SUMMIT    SUNNY     65  48  54 NE3       30.15S
OLATHE - IXD   SUNNY     66  48  52 CALM      30.14S
OLATHE - OJC   SUNNY     67  47  48 CALM      30.13S
LAWRENCE       SUNNY     61  51  70 CALM      30.14S

$$

MOZ001>008-011>017-020>025-030>033-038>040-044>046-053-054-211700-
...NORTHERN AND CENTRAL MISSOURI...

CITY           SKY/WX    TMP DP  RH WIND       PRES   REMARKS
ST. JOSEPH     SUNNY     61  47  59 MISG      30.14F
MOSBY          SUNNY     63  46  55 CALM      30.14S
WHITEMAN AFB   SUNNY     63  47  55 VRB1      30.14S
CLINTON        SUNNY     63  52  67 CALM      30.15S
SEDALIA        SUNNY     66  44  45 NW5       30.15F
WARSAW         NOT AVBL
MARSHALL       SUNNY     66  50  55 CALM      30.15S
CHILLICOTHE      N/A     61  49  64 S3        30.15S
MOBERLY        SUNNY     63  43  48 NE5       30.15S
KIRKSVILLE     SUNNY     58  48  69 E7        30.16F

$$

MOZ041-047>049-056>058-063>065-088>090-097-211700-
...EASTERN AND SOUTHERN MISSOURI...

CITY           SKY/WX    TMP DP  RH WIND       PRES   REMARKS
ST. LOUIS INTL SUNNY     60  45  57 E5        30.14S
SPIRIT OF STL  SUNNY     59  48  67 CALM      30.14R
COLUMBIA       SUNNY     66  47  50 CALM      30.13F
JEFFERSON CITY SUNNY     60  47  61 CALM      30.14F
MEXICO         SUNNY     64  52  63 NE7       30.14F HAZE
ROLLA          SUNNY     62  44  51 W6        30.13S
LEBANON        SUNNY     66  45  45 NW3       30.16R
OSAGE BEACH    SUNNY     63  48  59 SW3       30.15S
SPRINGFIELD    SUNNY     67  46  47 S6        30.14S
BRANSON        SUNNY     66  64  94 CALM      30.16S
NEVADA         SUNNY     68  52  56 S3        30.15S
JOPLIN         SUNNY     65  59  81 CALM      30.15R
WEST PLAINS    SUNNY     66  47  50 SW6       30.15S

$$

IAZ060-094-KSZ022-034>040-054-083-096-NEZ052-066-093-211700-
...KANSAS...SOUTHEAST NEBRASKA AND IOWA...

CITY           SKY/WX    TMP DP  RH WIND       PRES   REMARKS
TOPEKA         SUNNY     61  51  70 CALM      30.14S
MANHATTAN      SUNNY     62  50  64 CALM      30.12S
EMPORIA        SUNNY     65  53  65 S8        30.13S
CHANUTE        SUNNY     67  59  75 MISG      30.13S
WICHITA        MOSUNNY   71  55  56 SE12      30.11S
OMAHA          SUNNY     58  45  62 S5        30.13F
LINCOLN        SUNNY     60  45  57 SE5       30.13S
FALLS CITY     SUNNY     61  46  57 E3        30.13S
LAMONI         SUNNY     60  48  64 CALM      30.15S
DES MOINES     SUNNY     57  44  62 E7        30.16S

$$




USA.gov is the U.S. government's official web portal to all federal, state and local government web resources and services.